Maxwelton, WV

10:51 PM EST on February 11, 2016 (GMT -0500)
Greenbrier Valley

Weather History for KLWB - September, 2013

Change the Weather History Date:

Friday, September 13, 2013

  Actual Average Record
Temperature  
Mean Temperature 57 °F 63 °F  
Max Temperature 68 °F 76 °F 86 °F (2008)
Min Temperature 46 °F 51 °F 36 °F (1985)
Degree Days  
Heating Degree Days 8 3  
Month to date heating degree days 27  
Since 1 July heating degree days 55  
Cooling Degree Days 0 1  
Month to date cooling degree days 29  
Year to date cooling degree days 479  
Growing Degree Days 7 (Base 50)    
Moisture  
Dew Point 47 °F    
Average Humidity 66    
Maximum Humidity 94    
Minimum Humidity 33    
Precipitation  
Precipitation 0.00 in - 0.90 in (1966)
Snow  
Snow 0.00 in - - ()
Month to date snowfall  
Since 1 July snowfall  
Since 1 September snowfall  
Snow Depth -    
Sea Level Pressure  
Sea Level Pressure 29.95 in    
Wind  
Wind Speed 5 mph (WNW)    
Max Wind Speed 13 mph    
Max Gust Speed 20 mph    
Visibility 9 miles    
Events Rain    
T = Trace of Precipitation, MM = Missing Value Source: NWS Daily Summary

Daily Weather History Graph

Daily Weather History Graph

Search for Another Location

Airport or City:

Trip Planner

Search our weather history database for the weather conditions in past years. The results will help you decide how hot, cold, wet, or windy it might be!

Date:

Astronomy

Sep. 13, 2013 Rise Set
Actual Time 7:01 AM EDT 7:32 PM EDT
Civil Twilight 6:35 AM EDT 7:58 PM EDT
Nautical Twilight 6:04 AM EDT 8:29 PM EDT
Astronomical Twilight 5:32 AM EDT 9:01 PM EDT
Moon 3:16 PM EDT (9/13) 12:34 AM EDT (9/13)
Length of Visible Light 13h 23m
Length of Day
12h 30m
First Quarter, 61% of the Moon is Illuminated
Sep 13
First Quarter
Sep 19
Full
Sep 26
Last Quarter
Oct 4
New
Oct 11
First Quarter

Hourly Weather History & Observations

Time (EDT) Temp. Dew Point Humidity Pressure Visibility Wind Dir Wind Speed Gust Speed Precip Events Conditions
12:15 AM 60.8 °F 59.0 °F 94% 29.94 in 7.0 mi SW 3.5 mph - N/A   Clear
12:35 AM 60.8 °F 57.2 °F 88% 29.93 in 5.0 mi South 4.6 mph - N/A   Clear
12:55 AM 59.0 °F 57.2 °F 94% 29.92 in 3.0 mi Calm Calm - N/A   Clear
1:15 AM 59.0 °F 57.2 °F 94% 29.92 in 3.0 mi Calm Calm - N/A   Scattered Clouds
1:35 AM 59.0 °F 57.2 °F 94% 29.91 in - Calm Calm - N/A   Unknown
1:55 AM 60.8 °F 59.0 °F 94% 29.91 in 7.0 mi SSW 3.5 mph - N/A   Mostly Cloudy
2:15 AM 59.0 °F 57.2 °F 94% 29.91 in 5.0 mi Calm Calm - N/A   Scattered Clouds
2:35 AM 59.0 °F 55.4 °F 88% 29.91 in - Calm Calm - N/A   Unknown
2:55 AM 59.0 °F 55.4 °F 88% 29.90 in 5.0 mi SW 4.6 mph - N/A   Clear
3:15 AM 60.8 °F 57.2 °F 88% 29.89 in 7.0 mi SW 9.2 mph - N/A   Scattered Clouds
3:35 AM 60.8 °F 59.0 °F 94% 29.89 in - SW 8.1 mph - N/A   Unknown
3:55 AM 60.8 °F 59.0 °F 94% 29.89 in 7.0 mi SW 8.1 mph - N/A   Overcast
4:15 AM 60.8 °F 57.2 °F 88% 29.89 in 7.0 mi SSW 5.8 mph - N/A   Mostly Cloudy
4:35 AM - - N/A% 29.89 in - SSW 5.8 mph - N/A   Unknown
4:55 AM 60.8 °F 57.2 °F 88% 29.88 in 7.0 mi SW 4.6 mph - N/A   Overcast
5:15 AM 60.8 °F 57.2 °F 88% 29.89 in 7.0 mi SW 6.9 mph - N/A Rain Rain
5:35 AM 62.6 °F 57.2 °F 82% 29.89 in 10.0 mi SW 3.5 mph - N/A   Overcast
5:55 AM 60.8 °F 57.2 °F 88% 29.89 in 10.0 mi Calm Calm - N/A   Overcast
6:15 AM 62.6 °F 55.4 °F 77% 29.90 in 10.0 mi Calm Calm - N/A   Overcast
6:35 AM 60.8 °F 53.6 °F 77% 29.90 in 10.0 mi Calm Calm - N/A   Overcast
6:55 AM 60.8 °F 53.6 °F 77% 29.91 in 10.0 mi Calm Calm - N/A   Mostly Cloudy
7:15 AM 60.8 °F 53.6 °F 77% 29.91 in 10.0 mi Calm Calm - N/A   Scattered Clouds
7:35 AM 59.0 °F 53.6 °F 82% 29.92 in 10.0 mi Calm Calm - N/A   Scattered Clouds
7:55 AM 60.8 °F 53.6 °F 77% 29.92 in 10.0 mi Calm Calm - N/A   Clear
8:15 AM 60.8 °F 51.8 °F 72% 29.92 in 10.0 mi Calm Calm - N/A   Clear
8:35 AM 60.8 °F 53.6 °F 77% 29.93 in 10.0 mi Calm Calm - N/A   Scattered Clouds
8:55 AM 62.6 °F 53.6 °F 72% 29.93 in 10.0 mi WNW 5.8 mph - N/A   Scattered Clouds
9:15 AM 62.6 °F 48.2 °F 59% 29.93 in 10.0 mi NNW 10.4 mph 16.1 mph N/A   Scattered Clouds
9:35 AM 62.6 °F 48.2 °F 59% 29.94 in 10.0 mi NNW 10.4 mph 18.4 mph N/A   Clear
9:55 AM 62.6 °F 48.2 °F 59% 29.94 in 10.0 mi NW 9.2 mph 17.3 mph N/A   Scattered Clouds
10:15 AM 62.6 °F 46.4 °F 55% 29.95 in 10.0 mi NW 10.4 mph - N/A   Scattered Clouds
10:35 AM 62.6 °F 46.4 °F 55% 29.95 in 10.0 mi North 10.4 mph - N/A   Scattered Clouds
10:55 AM 60.8 °F 46.4 °F 59% 29.96 in 10.0 mi NW 6.9 mph 16.1 mph N/A   Mostly Cloudy
11:15 AM 62.6 °F 44.6 °F 52% 29.96 in 10.0 mi NW 12.7 mph 16.1 mph N/A   Scattered Clouds
11:35 AM 62.6 °F 44.6 °F 52% 29.96 in 10.0 mi NW 11.5 mph - N/A   Scattered Clouds
11:55 AM 62.6 °F 42.8 °F 48% 29.96 in 10.0 mi NW 11.5 mph 19.6 mph N/A   Scattered Clouds
12:15 PM 64.4 °F 42.8 °F 45% 29.96 in 10.0 mi WNW 10.4 mph 16.1 mph N/A   Clear
12:35 PM 64.4 °F 42.8 °F 45% 29.96 in 10.0 mi NNW 8.1 mph - N/A   Mostly Cloudy
12:55 PM 62.6 °F 44.6 °F 52% 29.96 in 10.0 mi WNW 9.2 mph - N/A   Mostly Cloudy
1:15 PM 64.4 °F 42.8 °F 45% 29.96 in 10.0 mi NW 10.4 mph 16.1 mph N/A   Scattered Clouds
1:35 PM 64.4 °F 41.0 °F 42% 29.96 in 10.0 mi NW 9.2 mph 18.4 mph N/A   Scattered Clouds
1:55 PM 64.4 °F 41.0 °F 42% 29.96 in 10.0 mi NW 8.1 mph - N/A   Scattered Clouds
2:15 PM 66.2 °F 41.0 °F 40% 29.95 in 10.0 mi NNW 9.2 mph - N/A   Scattered Clouds
2:35 PM 66.2 °F 39.2 °F 37% 29.94 in 10.0 mi NW 11.5 mph - N/A   Scattered Clouds
2:55 PM 66.2 °F 37.4 °F 35% 29.95 in 10.0 mi WNW 8.1 mph 16.1 mph N/A   Scattered Clouds
3:15 PM 68.0 °F 37.4 °F 33% 29.95 in 10.0 mi NW 11.5 mph 16.1 mph N/A   Mostly Cloudy
3:35 PM 66.2 °F 37.4 °F 35% 29.94 in 10.0 mi NNW 9.2 mph 19.6 mph N/A   Mostly Cloudy
3:55 PM 62.6 °F 39.2 °F 42% 29.95 in 10.0 mi NNW 8.1 mph - N/A   Scattered Clouds
4:15 PM 64.4 °F 41.0 °F 42% 29.95 in 10.0 mi NW 9.2 mph 16.1 mph N/A   Scattered Clouds
4:35 PM 62.6 °F 41.0 °F 45% 29.95 in 10.0 mi NW 12.7 mph 17.3 mph N/A   Scattered Clouds
4:55 PM 62.6 °F 41.0 °F 45% 29.95 in 10.0 mi NW 6.9 mph - N/A   Scattered Clouds
5:15 PM 64.4 °F 37.4 °F 37% 29.95 in 10.0 mi NW 6.9 mph - N/A   Scattered Clouds
5:35 PM 62.6 °F 41.0 °F 45% 29.96 in 10.0 mi NNW 9.2 mph - N/A   Scattered Clouds
5:55 PM 62.6 °F 41.0 °F 45% 29.96 in 10.0 mi NW 8.1 mph - N/A   Clear
6:15 PM 62.6 °F 41.0 °F 45% 29.97 in 10.0 mi NNW 10.4 mph - N/A   Scattered Clouds
6:35 PM 60.8 °F 41.0 °F 48% 29.97 in 10.0 mi NW 8.1 mph - N/A   Clear
6:55 PM 60.8 °F 41.0 °F 48% 29.98 in 10.0 mi NNW 6.9 mph - N/A   Clear
7:15 PM 59.0 °F 41.0 °F 51% 29.99 in 10.0 mi NNW 8.1 mph - N/A   Clear
7:35 PM 57.2 °F 41.0 °F 55% 29.99 in 10.0 mi NNW 6.9 mph - N/A   Clear
7:55 PM 55.4 °F 41.0 °F 58% 30.01 in 10.0 mi NW 3.5 mph - N/A   Clear
8:15 PM 55.4 °F 42.8 °F 63% 30.02 in 10.0 mi Calm Calm - N/A   Clear
8:35 PM 53.6 °F 42.8 °F 67% 30.03 in 10.0 mi Calm Calm - N/A   Clear
8:55 PM 53.6 °F 42.8 °F 67% 30.03 in 10.0 mi Calm Calm - N/A   Clear
9:15 PM 50.0 °F 42.8 °F 76% 30.03 in 10.0 mi Calm Calm - N/A   Scattered Clouds
9:35 PM 51.8 °F 42.8 °F 71% 30.04 in 10.0 mi Calm Calm - N/A   Clear
9:55 PM 51.8 °F 42.8 °F 71% 30.04 in 10.0 mi Calm Calm - N/A   Clear
10:15 PM 51.8 °F 42.8 °F 71% 30.04 in 10.0 mi Calm Calm - N/A   Clear
10:35 PM 51.8 °F 42.8 °F 71% 30.04 in 10.0 mi WSW 3.5 mph - N/A   Clear
10:55 PM 50.0 °F 42.8 °F 76% 30.04 in 10.0 mi Calm Calm - N/A   Clear
11:15 PM 50.0 °F 42.8 °F 76% 30.05 in 10.0 mi Calm Calm - N/A   Scattered Clouds
11:35 PM 46.4 °F 42.8 °F 87% 30.04 in 10.0 mi Calm Calm - N/A   Scattered Clouds
11:55 PM 46.4 °F 42.8 °F 87% 30.04 in 10.0 mi Calm Calm - N/A   Clear